• în Republica Moldova
  • Lista ţărilor
  • Pe 7 zile
  • Temperatura apei
  • Hartă satelitară
  • Meteo pe hartă
  • Widget-uri
  • user-avatar
    Intrare

    Meteo pe oră la Ischgl

    Astăzi, 23 Mai, Marţi

    Timp Temperatura Precipitaţii Vânt Presiune Umiditate
    00:00 0°C° 0 mm 1 m/s 573 mmHg 93%
    01:00 0°C° 0 mm 1 m/s 573 mmHg 93%
    02:00 0°C° 0 mm 1 m/s 573 mmHg 92%
    03:00 0°C° 0 mm 1 m/s 573 mmHg 91%
    04:00 0°C° 0 mm 1 m/s 573 mmHg 90%
    05:00 +2°C° 0 mm 1 m/s 575 mmHg 85%
    06:00 +4°C° 0 mm 1 m/s 576 mmHg 80%
    07:00 +6°C° 0 mm 1 m/s 577 mmHg 75%
    08:00 +8°C° 0 mm 1 m/s 578 mmHg 66%
    09:00 +10°C° 0 mm 1 m/s 579 mmHg 57%
    10:00 +10°C° 0 mm 2 m/s 580 mmHg 47%
    11:00 +12°C° 0 mm 2 m/s 580 mmHg 46%
    12:00 +13°C° 0 mm 2 m/s 580 mmHg 45%
    13:00 +13°C° 0 mm 2 m/s 580 mmHg 43%
    14:00 +13°C° 0,1 mm 2 m/s 580 mmHg 47%
    15:00 +12°C° 0,1 mm 2 m/s 580 mmHg 51%
    16:00 +12°C° 0,1 mm 2 m/s 579 mmHg 55%
    17:00 +9°C° 0,1 mm 2 m/s 579 mmHg 65%
    18:00 +8°C° 0,1 mm 2 m/s 578 mmHg 74%
    19:00 +7°C° 0,1 mm 1 m/s 578 mmHg 84%
    20:00 +5°C° 0 mm 1 m/s 577 mmHg 88%
    21:00 +4°C° 0 mm 1 m/s 576 mmHg 92%
    22:00 +2°C° 0 mm 1 m/s 576 mmHg 96%
    23:00 +2°C° 0 mm 1 m/s 576 mmHg 96%

    Mâine, 24 Mai, Miercuri

    Timp Temperatura Precipitaţii Vânt Presiune Umiditate
    00:00 +2°C° 0 mm 1 m/s 576 mmHg 96%
    01:00 +2°C° 0 mm 1 m/s 576 mmHg 96%
    02:00 +2°C° 0 mm 1 m/s 576 mmHg 96%
    03:00 +1°C° 0 mm 1 m/s 576 mmHg 96%
    04:00 +1°C° 0 mm 1 m/s 575 mmHg 96%
    05:00 +3°C° 0 mm 1 m/s 576 mmHg 93%
    06:00 +4°C° 0 mm 1 m/s 577 mmHg 90%
    07:00 +6°C° 0 mm 1 m/s 578 mmHg 87%
    08:00 +6°C° 0,1 mm 2 m/s 579 mmHg 81%
    09:00 +7°C° 0,1 mm 2 m/s 579 mmHg 75%
    10:00 +8°C° 0,1 mm 2 m/s 580 mmHg 69%
    11:00 +9°C° 0,1 mm 2 m/s 580 mmHg 64%
    12:00 +10°C° 0,1 mm 2 m/s 581 mmHg 58%
    13:00 +12°C° 0,1 mm 2 m/s 581 mmHg 53%
    14:00 +12°C° 0 mm 2 m/s 581 mmHg 53%
    15:00 +11°C° 0 mm 3 m/s 580 mmHg 54%
    16:00 +10°C° 0 mm 3 m/s 580 mmHg 54%
    17:00 +9°C° 0 mm 2 m/s 579 mmHg 62%
    18:00 +7°C° 0 mm 2 m/s 579 mmHg 70%
    19:00 +6°C° 0 mm 2 m/s 578 mmHg 78%
    20:00 +4°C° 0 mm 2 m/s 577 mmHg 84%
    21:00 +3°C° 0 mm 1 m/s 577 mmHg 90%
    22:00 0°C° 0 mm 1 m/s 576 mmHg 96%
    23:00 0°C° 0 mm 1 m/s 576 mmHg 96%

    Poimâine, 25 Mai, Joi

    Timp Temperatura Precipitaţii Vânt Presiune Umiditate
    00:00 0°C° 0 mm 1 m/s 575 mmHg 95%
    01:00 -1°C° 0 mm 1 m/s 575 mmHg 95%
    02:00 -1°C° 0 mm 1 m/s 575 mmHg 93%
    03:00 -1°C° 0 mm 1 m/s 575 mmHg 91%
    04:00 -1°C° 0 mm 1 m/s 574 mmHg 90%
    05:00 +1°C° 0 mm 1 m/s 576 mmHg 80%
    06:00 +4°C° 0 mm 1 m/s 577 mmHg 70%
    07:00 +6°C° 0 mm 1 m/s 578 mmHg 61%
    08:00 +7°C° 0 mm 2 m/s 579 mmHg 56%
    09:00 +9°C° 0 mm 2 m/s 580 mmHg 52%
    10:00 +10°C° 0 mm 2 m/s 580 mmHg 47%
    11:00 +12°C° 0 mm 2 m/s 581 mmHg 46%
    12:00 +13°C° 0 mm 2 m/s 581 mmHg 44%
    13:00 +13°C° 0 mm 3 m/s 581 mmHg 43%
    14:00 +12°C° 0 mm 3 m/s 580 mmHg 46%
    15:00 +12°C° 0 mm 3 m/s 580 mmHg 48%
    16:00 +12°C° 0 mm 3 m/s 579 mmHg 51%
    17:00 +10°C° 0 mm 2 m/s 579 mmHg 61%
    18:00 +8°C° 0 mm 2 m/s 578 mmHg 71%
    19:00 +7°C° 0 mm 2 m/s 577 mmHg 81%
    20:00 +5°C° 0 mm 2 m/s 576 mmHg 86%
    21:00 +4°C° 0 mm 1 m/s 576 mmHg 91%
    22:00 +3°C° 0 mm 1 m/s 575 mmHg 96%
    23:00 +2°C° 0 mm 1 m/s 575 mmHg 96%

    26 Mai, Vineri

    Timp Temperatura Precipitaţii Vânt Presiune Umiditate
    00:00 +1°C° 0 mm 1 m/s 574 mmHg 96%
    01:00 +1°C° 0 mm 1 m/s 574 mmHg 96%
    02:00 0°C° 0 mm 1 m/s 573 mmHg 96%
    03:00 0°C° 0 mm 1 m/s 573 mmHg 95%
    04:00 -1°C° 0 mm 1 m/s 572 mmHg 95%
    05:00 +2°C° 0 mm 1 m/s 574 mmHg 87%
    06:00 +4°C° 0 mm 1 m/s 575 mmHg 79%
    07:00 +6°C° 0 mm 1 m/s 576 mmHg 71%
    08:00 +8°C° 0 mm 1 m/s 577 mmHg 62%
    09:00 +9°C° 0 mm 2 m/s 578 mmHg 52%
    10:00 +12°C° 0 mm 2 m/s 579 mmHg 43%
    11:00 +13°C° 0 mm 2 m/s 579 mmHg 42%
    12:00 +14°C° 0 mm 2 m/s 579 mmHg 40%
    13:00 +15°C° 0 mm 2 m/s 579 mmHg 39%
    14:00 +14°C° 0 mm 2 m/s 579 mmHg 42%
    15:00 +14°C° 0 mm 2 m/s 579 mmHg 44%
    16:00 +13°C° 0 mm 3 m/s 578 mmHg 47%
    17:00 +12°C° 0 mm 2 m/s 578 mmHg 58%
    18:00 +9°C° 0 mm 2 m/s 577 mmHg 68%
    19:00 +8°C° 0 mm 2 m/s 576 mmHg 79%
    20:00 +6°C° 0 mm 1 m/s 575 mmHg 85%
    21:00 +4°C° 0 mm 1 m/s 574 mmHg 91%
    22:00 +2°C° 0 mm 1 m/s 573 mmHg 97%
    23:00 +2°C° 0 mm 1 m/s 573 mmHg 96%

    27 Mai, Sâmbătă

    Timp Temperatura Precipitaţii Vânt Presiune Umiditate
    00:00 +1°C° 0 mm 1 m/s 573 mmHg 96%
    01:00 +1°C° 0 mm 1 m/s 573 mmHg 95%
    02:00 +1°C° 0 mm 1 m/s 573 mmHg 94%
    03:00 +1°C° 0 mm 1 m/s 573 mmHg 93%
    04:00 +1°C° 0 mm 1 m/s 573 mmHg 92%
    05:00 +3°C° 0 mm 1 m/s 574 mmHg 85%
    06:00 +6°C° 0 mm 1 m/s 576 mmHg 77%
    07:00 +7°C° 0 mm 0 m/s 577 mmHg 69%
    08:00 +10°C° 0 mm 1 m/s 578 mmHg 59%
    09:00 +12°C° 0 mm 1 m/s 579 mmHg 48%
    10:00 +14°C° 0 mm 1 m/s 580 mmHg 38%
    11:00 +15°C° 0 mm 2 m/s 580 mmHg 37%
    12:00 +16°C° 0 mm 2 m/s 581 mmHg 36%
    13:00 +16°C° 0 mm 2 m/s 581 mmHg 36%
    14:00 +16°C° 0 mm 2 m/s 580 mmHg 39%
    15:00 +15°C° 0 mm 2 m/s 580 mmHg 43%
    16:00 +15°C° 0 mm 2 m/s 580 mmHg 46%
    17:00 +13°C° 0,1 mm 2 m/s 579 mmHg 57%
    18:00 +10°C° 0,1 mm 2 m/s 579 mmHg 68%
    19:00 +10°C° 0,1 mm 1 m/s 578 mmHg 79%
    20:00 +7°C° 0 mm 1 m/s 577 mmHg 84%
    21:00 +5°C° 0 mm 1 m/s 576 mmHg 90%
    22:00 +3°C° 0 mm 1 m/s 575 mmHg 96%
    23:00 +3°C° 0 mm 1 m/s 576 mmHg 96%

    28 Mai, Duminică

    Timp Temperatura Precipitaţii Vânt Presiune Umiditate
    00:00 +4°C° 0 mm 1 m/s 576 mmHg 95%
    01:00 +4°C° 0 mm 1 m/s 576 mmHg 95%
    02:00 +4°C° 0 mm 1 m/s 576 mmHg 95%
    03:00 +4°C° 0 mm 1 m/s 576 mmHg 95%
    04:00 +4°C° 0 mm 1 m/s 576 mmHg 95%
    05:00 +5°C° 0 mm 1 m/s 577 mmHg 90%
    06:00 +7°C° 0 mm 1 m/s 578 mmHg 85%
    07:00 +8°C° 0 mm 1 m/s 579 mmHg 79%
    08:00 +11°C° 0 mm 1 m/s 580 mmHg 67%
    09:00 +13°C° 0 mm 1 m/s 581 mmHg 54%
    10:00 +15°C° 0 mm 1 m/s 583 mmHg 42%
    11:00 +16°C° 0 mm 1 m/s 583 mmHg 40%
    12:00 +18°C° 0 mm 1 m/s 583 mmHg 38%
    13:00 +17°C° 0 mm 2 m/s 583 mmHg 37%
    14:00 +16°C° 0,1 mm 2 m/s 583 mmHg 42%
    15:00 +16°C° 0,1 mm 2 m/s 582 mmHg 48%
    16:00 +15°C° 0,1 mm 2 m/s 582 mmHg 53%
    17:00 +13°C° 0,1 mm 1 m/s 581 mmHg 63%
    18:00 +12°C° 0,1 mm 1 m/s 581 mmHg 73%
    19:00 +11°C° 0,1 mm 1 m/s 580 mmHg 84%
    20:00 +9°C° 0 mm 1 m/s 580 mmHg 87%
    21:00 +7°C° 0 mm 1 m/s 579 mmHg 91%
    22:00 +5°C° 0 mm 1 m/s 578 mmHg 95%
    23:00 +5°C° 0 mm 1 m/s 578 mmHg 94%
    Arată mai mult